Flag for U.S.A. Weather past 2 weeks in Bentonville, Arkansas, U.S.A.

Now
82 °F

Scattered clouds.


Feels Like: 85 °F
Forecast: 68 / 85 °F
Wind: 6 mph from Southwest

Location: Bentonville Weather Observing Station

Current Time: Aug 29, 2015 at 7:21:20 PM

Latest Report: Aug 29, 2015 at 6:55 PM


Visibility: 10 mi

Pressure: 29.99 "Hg

Humidity: 58%

Dew point: 66 °F

Location of BentonvilleLocation

Historic Weather in Bentonville — Graph

°F

Bentonville temperature yesterday

Maximum temperature yesterday: 82 °F (at 4:15 PM)
Minimum temperature yesterday: 61 °F (at 4:15 AM)
Average temperature yesterday: 72 °F

Past Weeks' High & Low Weather Summary

 TemperatureHumidityPressure
High91 °F (Aug 16, 2:55 PM)94% (Aug 20, 7:55 AM)30.23 "Hg (Aug 20, 7:55 AM)
Low52 °F (Aug 20, 6:15 AM)32% (Aug 25, 2:55 PM)29.74 "Hg (Aug 18, 7:15 PM)
Average72 °F67%30.06 "Hg
* Reported Aug 14 6:15 PM — Aug 29 6:15 PM, Bentonville, Weather by CustomWeather, © 2015

Note: Actual official high and low records may vary slightly from our data, if they occured in-between our weather recording intervals... More about our weather records

Advertising

Bentonville weather history for previous 24 hours

 ConditionsComfort  
Time TempWeatherWind HumidityBarometerVisibility
6:15 PM
Sat, Aug 29
82 °FScattered clouds.9 mph58%29.99 "Hg10 mi
5:55 PM84 °FSunny.9 mph55%29.99 "Hg10 mi
5:35 PM84 °FPartly sunny.10 mph55%29.99 "Hg10 mi
4:55 PM86 °FPartly sunny.12 mph55%29.99 "Hg10 mi
4:35 PM86 °FBroken clouds.8 mph52%29.99 "Hg10 mi
4:15 PM86 °FBroken clouds.8 mph52%30.00 "Hg10 mi
3:55 PM88 °FScattered clouds.6 mph49%30.00 "Hg10 mi
3:35 PM88 °FScattered clouds.12 mph49%30.00 "Hg10 mi
3:15 PM88 °FBroken clouds.9 mph49%30.00 "Hg10 mi
2:55 PM86 °FScattered clouds.7 mph52%30.01 "Hg10 mi
2:35 PM88 °FPassing clouds.8 mph49%30.01 "Hg10 mi
2:15 PM84 °FPassing clouds.8 mph51%30.02 "Hg10 mi
1:55 PM84 °FSunny.7 mph51%30.02 "Hg10 mi
1:35 PM84 °FSunny.9 mph51%30.02 "Hg10 mi
1:15 PM84 °FSunny.8 mph51%30.03 "Hg10 mi
12:55 PM84 °FSunny.10 mph51%30.04 "Hg10 mi
12:35 PM84 °FSunny.12 mph51%30.04 "Hg10 mi
12:15 PM84 °FSunny.10 mph51%30.04 "Hg10 mi
11:55 AM82 °FSunny.7 mph55%30.05 "Hg10 mi
11:35 AM82 °FSunny.7 mph51%30.05 "Hg10 mi
11:15 AM81 °FSunny.8 mph54%30.06 "Hg10 mi
10:55 AM81 °FSunny.8 mph54%30.05 "Hg10 mi
10:35 AM79 °FSunny.10 mph58%30.04 "Hg10 mi
10:15 AM79 °FSunny.10 mph58%30.04 "Hg10 mi
9:55 AM77 °FSunny.8 mph57%30.04 "Hg10 mi
9:35 AM75 °FSunny.10 mph61%30.03 "Hg10 mi
9:15 AM75 °FSunny.10 mph61%30.03 "Hg10 mi
8:55 AM73 °FSunny.9 mph65%30.03 "Hg10 mi
8:35 AM72 °FSunny.8 mph69%30.04 "Hg10 mi
8:15 AM72 °FPassing clouds.7 mph65%30.04 "Hg10 mi
7:55 AM70 °FScattered clouds.6 mph73%30.03 "Hg10 mi
7:15 AM68 °FPassing clouds.3 mph73%30.02 "Hg10 mi
6:55 AM68 °FPartly cloudy.3 mph73%30.02 "Hg10 mi
6:35 AM68 °FPassing clouds.5 mph73%30.01 "Hg10 mi
6:15 AM68 °FPassing clouds.5 mph73%30.01 "Hg10 mi
5:55 AM66 °FPassing clouds.5 mph78%30.00 "Hg10 mi
5:15 AM68 °FPassing clouds.3 mph73%30.00 "Hg10 mi
4:55 AM70 °FPassing clouds.5 mph69%30.00 "Hg10 mi
4:35 AM70 °FPassing clouds.5 mph69%30.01 "Hg10 mi
4:15 AM70 °FPassing clouds.3 mph69%30.01 "Hg10 mi
3:55 AM68 °FPassing clouds.5 mph78%30.01 "Hg10 mi
2:35 AM70 °FPassing clouds.5 mph73%30.01 "Hg10 mi
2:15 AM72 °FThundershowers. Passing clouds.5 mph69%30.01 "Hg10 mi
1:55 AM72 °FPassing clouds.5 mph69%30.02 "Hg10 mi
12:55 AM72 °FPassing clouds.6 mph69%30.02 "Hg10 mi
12:35 AM72 °FPassing clouds.7 mph69%30.02 "Hg10 mi
12:15 AM72 °FPassing clouds.5 mph69%30.03 "Hg10 mi
11:55 PM
Fri, Aug 28
72 °FPassing clouds.3 mph69%30.03 "Hg10 mi
11:35 PM72 °FPassing clouds.3 mph69%30.02 "Hg10 mi
10:55 PM73 °FOvercast.3 mph65%30.02 "Hg10 mi
10:15 PM73 °FOvercast.6 mph65%30.02 "Hg10 mi
9:55 PM73 °FPassing clouds.7 mph65%30.01 "Hg10 mi
9:35 PM73 °FPassing clouds.8 mph65%30.01 "Hg10 mi
9:15 PM73 °FOvercast.7 mph65%30.00 "Hg10 mi
8:55 PM73 °FPassing clouds.9 mph65%29.99 "Hg10 mi
8:15 PM75 °FSunny.8 mph65%29.99 "Hg10 mi
7:55 PM75 °FSunny.6 mph65%29.99 "Hg10 mi
7:35 PM77 °FSunny.8 mph61%29.98 "Hg10 mi
7:15 PM77 °FSunny.9 mph61%29.98 "Hg10 mi
Weather by CustomWeather, © 2015

See weather overviewHow to use our weather pages